Location: Easthampton
(42.2676°N, 72.6690°W)
Time: 00:05:00
(UTC+00:00)

RS-44 - Pass Details

Date: 24 April 2024
Orbit: 1174 x 1511 km, 82.5° (Epoch: 28 May)

Event Time Altitude Azimuth Distance (km) Brightness Sun altitude
Rises 02:13:16 0° 235° (SW) 4,628 ? -24.2°
Reaches altitude 10° 02:17:13 10° 251° (WSW) 3,624 ? -24.7°
Maximum altitude 02:23:22 21° 296° (WNW) 2,813 ? -25.4°
Drops below altitude 10° 02:29:21 10° 342° (NNW) 3,491 ? -26.1°
Sets 02:33:07 0° 359° (N) 4,411 ? -26.6°
